Location: Strawberry
(45.6646°N, 111.9596°W)
Time: 21:24:52
(UTC+00:00)

Envisat - Pass Details

Date: 20 August 2022
Orbit: 764 x 765 km, 98.2° (Epoch: 27 September)

Event Time Altitude Azimuth Distance (km) Brightness Sun altitude
Rises 11:20:43 0° 20° (NNE) 3,242 7.2 -12.4°
Reaches altitude 10° 11:23:11 10° 28° (NNE) 2,311 6.5 -12.1°
Maximum altitude 11:27:56 39° 97° (E) 1,136 4.4 -11.3°
Drops below altitude 10° 11:32:40 10° 166° (SSE) 2,294 5.3 -10.6°
Sets 11:35:05 0° 174° (S) 3,215 6.0 -10.3°
